Flag for Switzerland Weather past 2 weeks in Spiez, Bern, Switzerland

Now
67 °F

Mild.


Feels Like: 67 °F
Forecast: 56 / 79 °F
Wind: 2 mph from Northeast

Location: Interlaken

Current Time: Sep 18, 2014 at 3:43:49 PM

Latest Report: Sep 18, 2014 at 3:00 PM


Visibility: N/A

Pressure: 29.89 "Hg

Humidity: 71%

Dew point: 57 °F

Location of SpiezLocation

Historic Weather in Spiez — Graph

°F

Spiez temperature yesterday

Maximum temperature yesterday: 71 °F (at 2:00 PM)
Minimum temperature yesterday: 53 °F (at 7:00 AM)
Average temperature yesterday: 61 °F

Past Weeks' High & Low Weather Summary

 TemperatureHumidityPressure
High80 °F (Sep 8, 5:00 PM)98% (Sep 5, 9:00 AM)30.14 "Hg (Sep 5, 9:00 AM)
Low49 °F (Sep 14, 7:00 AM)49% (Sep 7, 4:00 PM)29.81 "Hg (Sep 17, 4:00 PM)
Average61 °F80%29.97 "Hg
* Reported Sep 3 2:00 PM — Sep 18 2:00 PM, Spiez, Weather by CustomWeather, © 2014

Note: Actual official high and low records may vary slightly from our data, if they occured in-between our weather recording intervals... More about our weather records

Advertising

Spiez weather history for previous 24 hours

 ConditionsComfort  
Time TempWeatherWind HumidityBarometerVisibility
2:00 PM
Sep 18
67 °FMild.1 mph68%29.89 "HgN/A
1:00 PM65 °FMild.8 mph68%29.89 "HgN/A
12:00 PM66 °FMild.1 mph68%29.88 "HgN/A
11:00 AM64 °FMild.No wind68%29.89 "HgN/A
10:00 AM60 °FCool.1 mph83%29.90 "HgN/A
9:00 AM59 °FCool.2 mph86%29.90 "HgN/A
8:00 AM57 °FCool.3 mph88%29.90 "HgN/A
7:00 AM57 °FCool.No wind86%29.90 "HgN/A
6:00 AM57 °FCool.1 mph87%29.90 "HgN/A
5:00 AM56 °FCool.1 mph85%29.90 "HgN/A
4:00 AM55 °FCool.1 mph87%29.91 "HgN/A
3:00 AM56 °FCool.No wind83%29.92 "HgN/A
2:00 AM56 °FCool.No wind87%29.91 "HgN/A
1:00 AM58 °FCool.No wind86%29.90 "HgN/A
12:00 AM58 °FCool.No wind84%29.90 "HgN/A
11:00 PM
Sep 17
58 °FCool.1 mph87%29.91 "HgN/A
10:00 PM60 °FCool.No wind84%29.90 "HgN/A
9:00 PM61 °FCool.1 mph83%29.87 "HgN/A
8:00 PM63 °FMild.No wind81%29.85 "HgN/A
7:00 PM65 °FMild.No wind79%29.84 "HgN/A
6:00 PM67 °FMild.2 mph79%29.83 "HgN/A
5:00 PM69 °FMild.No wind71%29.81 "HgN/A
4:00 PM70 °FMild.3 mph64%29.81 "HgN/A
3:00 PM70 °FMild.3 mph64%29.82 "HgN/A
Weather by CustomWeather, © 2014

See weather overviewHow to use our weather pages